BEIDOU-2 IGSO-4

Last updated on Sun Sep 06 2026 00:02:57 GMT+0000 (Coordinated Universal Time)

1 37763U 11038A 26247.73814491 -.00000100 00000+0 00000+0 0 9997 2 37763 54.6025 164.9665 0160725 231.0936 308.0028 1.00269154 55449
UTC large
Height (km)
Speed (km/s)
/
Latitude / Longitude
Inclination (degrees)
Orbital Period (minutes)
Azimuth
Elevation
Range (km)
Doppler Factor

Next 0 passes for location: London (51.5072 / 0.1276)

No passes found over London.
BEIDOU-2 IGSO-4